• en Belgique
  • Liste des pays
  • À 7 jours
  • Température de l'eau
  • Carte satellitaire
  • Carte météo
  • Widgets météo
  • user-avatar
    Se connecter

    Météo par heure à Ans

    Ce jour, 23 Mai, Mercredi

    Heure Température Précipitation Vent Pression Humidité
    00:00 +15°C° 0,1 mm 1 m/s 747 mmHg 94%
    01:00 +15°C° 0 mm 1 m/s 747 mmHg 94%
    02:00 +14°C° 0 mm 1 m/s 747 mmHg 94%
    03:00 +14°C° 0 mm 1 m/s 747 mmHg 94%
    04:00 +15°C° 0 mm 1 m/s 748 mmHg 94%
    05:00 +16°C° 0 mm 1 m/s 748 mmHg 93%
    06:00 +16°C° 0 mm 1 m/s 748 mmHg 92%
    07:00 +18°C° 0,2 mm 2 m/s 748 mmHg 87%
    08:00 +19°C° 0,2 mm 2 m/s 749 mmHg 82%
    09:00 +20°C° 0,2 mm 3 m/s 749 mmHg 78%
    10:00 +21°C° 0,8 mm 3 m/s 749 mmHg 77%
    11:00 +21°C° 0,8 mm 3 m/s 749 mmHg 77%
    12:00 +22°C° 0,8 mm 4 m/s 749 mmHg 77%
    13:00 +22°C° 0,8 mm 4 m/s 749 mmHg 76%
    14:00 +22°C° 0,8 mm 4 m/s 749 mmHg 74%
    15:00 +22°C° 0,8 mm 4 m/s 748 mmHg 73%
    16:00 +22°C° 0,8 mm 4 m/s 748 mmHg 76%
    17:00 +21°C° 0,8 mm 3 m/s 749 mmHg 79%
    18:00 +20°C° 0,8 mm 3 m/s 749 mmHg 82%
    19:00 +19°C° 0,2 mm 3 m/s 749 mmHg 83%
    20:00 +18°C° 0,2 mm 3 m/s 749 mmHg 83%
    21:00 +17°C° 0,2 mm 3 m/s 749 mmHg 84%
    22:00 +17°C° 0 mm 3 m/s 749 mmHg 85%
    23:00 +16°C° 0 mm 3 m/s 749 mmHg 86%

    Demain, 24 Mai, Jeudi

    Heure Température Précipitation Vent Pression Humidité
    00:00 +16°C° 0 mm 2 m/s 749 mmHg 87%
    01:00 +14°C° 0 mm 3 m/s 749 mmHg 87%
    02:00 +14°C° 0 mm 3 m/s 749 mmHg 87%
    03:00 +14°C° 0 mm 3 m/s 749 mmHg 87%
    04:00 +14°C° 0 mm 3 m/s 749 mmHg 86%
    05:00 +16°C° 0 mm 3 m/s 749 mmHg 85%
    06:00 +17°C° 0 mm 3 m/s 749 mmHg 85%
    07:00 +18°C° 0 mm 3 m/s 749 mmHg 82%
    08:00 +19°C° 0 mm 3 m/s 749 mmHg 80%
    09:00 +20°C° 0 mm 3 m/s 749 mmHg 77%
    10:00 +21°C° 0,4 mm 3 m/s 749 mmHg 77%
    11:00 +22°C° 0,4 mm 3 m/s 749 mmHg 76%
    12:00 +22°C° 0,4 mm 3 m/s 748 mmHg 75%
    13:00 +23°C° 1,9 mm 2 m/s 748 mmHg 77%
    14:00 +23°C° 1,9 mm 2 m/s 748 mmHg 80%
    15:00 +23°C° 1,9 mm 2 m/s 748 mmHg 82%
    16:00 +22°C° 0,8 mm 1 m/s 748 mmHg 83%
    17:00 +22°C° 0,8 mm 1 m/s 748 mmHg 84%
    18:00 +22°C° 0,8 mm 1 m/s 748 mmHg 85%
    19:00 +21°C° 0,2 mm 1 m/s 748 mmHg 88%
    20:00 +19°C° 0,2 mm 1 m/s 748 mmHg 90%
    21:00 +17°C° 0,2 mm 2 m/s 748 mmHg 92%
    22:00 +17°C° 0 mm 2 m/s 748 mmHg 92%
    23:00 +16°C° 0 mm 1 m/s 748 mmHg 93%

    Après-demain, 25 Mai, Vendredi

    Heure Température Précipitation Vent Pression Humidité
    00:00 +16°C° 0 mm 1 m/s 748 mmHg 94%
    01:00 +15°C° 0 mm 1 m/s 748 mmHg 94%
    02:00 +15°C° 0 mm 1 m/s 748 mmHg 94%
    03:00 +15°C° 0 mm 1 m/s 748 mmHg 94%
    04:00 +16°C° 0 mm 1 m/s 748 mmHg 92%
    05:00 +18°C° 0 mm 1 m/s 749 mmHg 91%
    06:00 +19°C° 0 mm 1 m/s 749 mmHg 89%
    07:00 +21°C° 0 mm 1 m/s 749 mmHg 81%
    08:00 +23°C° 0 mm 1 m/s 749 mmHg 72%
    09:00 +23°C° 0 mm 0 m/s 749 mmHg 64%
    10:00 +24°C° 0 mm 0 m/s 749 mmHg 59%
    11:00 +25°C° 0 mm 0 m/s 749 mmHg 55%
    12:00 +26°C° 0 mm 0 m/s 749 mmHg 50%
    13:00 +26°C° 0 mm 0 m/s 749 mmHg 50%
    14:00 +26°C° 0 mm 0 m/s 749 mmHg 50%
    15:00 +26°C° 0 mm 0 m/s 749 mmHg 49%
    16:00 +25°C° 0 mm 0 m/s 749 mmHg 55%
    17:00 +26°C° 0 mm 1 m/s 748 mmHg 60%
    18:00 +25°C° 0 mm 1 m/s 748 mmHg 65%
    19:00 +23°C° 0 mm 1 m/s 749 mmHg 68%
    20:00 +22°C° 0 mm 1 m/s 749 mmHg 71%
    21:00 +20°C° 0 mm 1 m/s 749 mmHg 74%
    22:00 +20°C° 0 mm 1 m/s 749 mmHg 76%
    23:00 +19°C° 0 mm 1 m/s 749 mmHg 78%

    26 Mai, Samedi

    Heure Température Précipitation Vent Pression Humidité
    00:00 +19°C° 0 mm 1 m/s 749 mmHg 80%
    01:00 +19°C° 0 mm 1 m/s 749 mmHg 81%
    02:00 +18°C° 0 mm 1 m/s 749 mmHg 83%
    03:00 +18°C° 0 mm 1 m/s 749 mmHg 85%
    04:00 +18°C° 0 mm 2 m/s 749 mmHg 83%
    05:00 +19°C° 0 mm 2 m/s 749 mmHg 81%
    06:00 +20°C° 0 mm 2 m/s 750 mmHg 79%
    07:00 +23°C° 0 mm 2 m/s 750 mmHg 74%
    08:00 +25°C° 0 mm 3 m/s 750 mmHg 68%
    09:00 +27°C° 0 mm 3 m/s 750 mmHg 62%
    10:00 +27°C° 0 mm 3 m/s 750 mmHg 60%
    11:00 +28°C° 0 mm 3 m/s 750 mmHg 57%
    12:00 +29°C° 0 mm 3 m/s 750 mmHg 54%
    13:00 +29°C° 0 mm 3 m/s 750 mmHg 55%
    14:00 +30°C° 0 mm 3 m/s 750 mmHg 55%
    15:00 +30°C° 0 mm 3 m/s 750 mmHg 55%
    16:00 +29°C° 0 mm 3 m/s 750 mmHg 60%
    17:00 +28°C° 0 mm 3 m/s 750 mmHg 65%
    18:00 +27°C° 0 mm 3 m/s 750 mmHg 70%
    19:00 +25°C° 0 mm 3 m/s 750 mmHg 71%
    20:00 +24°C° 0 mm 3 m/s 750 mmHg 73%
    21:00 +21°C° 0 mm 3 m/s 751 mmHg 74%
    22:00 +21°C° 0 mm 3 m/s 751 mmHg 75%
    23:00 +20°C° 0 mm 3 m/s 751 mmHg 77%

    27 Mai, Dimanche

    Heure Température Précipitation Vent Pression Humidité
    00:00 +19°C° 0 mm 3 m/s 751 mmHg 78%
    01:00 +19°C° 0 mm 3 m/s 751 mmHg 78%
    02:00 +18°C° 0 mm 3 m/s 750 mmHg 79%
    03:00 +18°C° 0 mm 3 m/s 750 mmHg 80%
    04:00 +19°C° 0 mm 3 m/s 750 mmHg 79%
    05:00 +19°C° 0 mm 3 m/s 750 mmHg 78%
    06:00 +20°C° 0 mm 3 m/s 750 mmHg 76%
    07:00 +22°C° 0 mm 4 m/s 750 mmHg 72%
    08:00 +23°C° 0 mm 4 m/s 750 mmHg 68%
    09:00 +26°C° 0 mm 4 m/s 750 mmHg 64%
    10:00 +27°C° 0 mm 4 m/s 750 mmHg 61%
    11:00 +28°C° 0 mm 4 m/s 750 mmHg 58%
    12:00 +29°C° 0 mm 3 m/s 750 mmHg 55%
    13:00 +30°C° 0 mm 3 m/s 749 mmHg 55%
    14:00 +30°C° 0 mm 3 m/s 749 mmHg 55%
    15:00 +30°C° 0 mm 3 m/s 748 mmHg 55%
    16:00 +29°C° 0 mm 3 m/s 748 mmHg 60%
    17:00 +28°C° 0 mm 3 m/s 748 mmHg 64%
    18:00 +27°C° 0 mm 3 m/s 748 mmHg 69%
    19:00 +25°C° 0 mm 3 m/s 748 mmHg 72%
    20:00 +24°C° 0 mm 3 m/s 748 mmHg 75%
    21:00 +21°C° 0 mm 3 m/s 748 mmHg 78%
    22:00 +21°C° 0 mm 3 m/s 748 mmHg 79%
    23:00 +20°C° 0 mm 2 m/s 748 mmHg 79%

    28 Mai, Lundi

    Heure Température Précipitation Vent Pression Humidité
    00:00 +20°C° 0 mm 2 m/s 748 mmHg 80%
    01:00 +19°C° 0 mm 2 m/s 748 mmHg 81%
    02:00 +19°C° 0 mm 2 m/s 747 mmHg 82%
    03:00 +19°C° 0 mm 2 m/s 747 mmHg 84%
    04:00 +19°C° 0 mm 2 m/s 747 mmHg 82%
    05:00 +20°C° 0 mm 2 m/s 747 mmHg 80%
    06:00 +21°C° 0 mm 2 m/s 748 mmHg 78%
    07:00 +24°C° 0 mm 2 m/s 748 mmHg 72%
    08:00 +26°C° 0 mm 3 m/s 747 mmHg 67%
    09:00 +28°C° 0 mm 3 m/s 747 mmHg 62%
    10:00 +29°C° 0,1 mm 3 m/s 747 mmHg 58%
    11:00 +30°C° 0,1 mm 3 m/s 747 mmHg 55%
    12:00 +31°C° 0,1 mm 2 m/s 747 mmHg 51%
    13:00 +31°C° 0,1 mm 2 m/s 746 mmHg 51%
    14:00 +31°C° 0,1 mm 2 m/s 746 mmHg 52%
    15:00 +31°C° 0,1 mm 1 m/s 746 mmHg 52%
    16:00 +30°C° 0 mm 1 m/s 746 mmHg 57%
    17:00 +29°C° 0 mm 1 m/s 745 mmHg 62%
    18:00 +28°C° 0 mm 1 m/s 745 mmHg 67%
    19:00 +27°C° 0,1 mm 1 m/s 745 mmHg 69%
    20:00 +25°C° 0,1 mm 1 m/s 745 mmHg 71%
    21:00 +24°C° 0,1 mm 2 m/s 746 mmHg 74%
    22:00 +23°C° 1,4 mm 1 m/s 746 mmHg 79%
    23:00 +22°C° 1,4 mm 1 m/s 746 mmHg 85%
    Voir plus